This is the latest recevied weather packets stored in our database for station/object S54Z-11. If no packets are shown the sender has not sent any weather packets the latest 10 day(s).
| Time | Temp. | Humidity | Pressure | Rain* | Wind** | Luminosity | Snow |
|---|---|---|---|---|---|---|---|
| 1777534774 | 10.56° C | 37% | 1030.9 hPa | - | - | - | - |
| 1777533874 | 11.11° C | 38% | 1030.9 hPa | - | - | - | - |
| 1777532974 | 10.56° C | 36% | 1031 hPa | - | - | - | - |
| 1777532074 | 8.89° C | 38% | 1031 hPa | - | - | - | - |
| 1777531173 | 9.44° C | 40% | 1031 hPa | - | - | - | - |
| 1777530273 | 9.44° C | 39% | 1030.9 hPa | - | - | - | - |
| 1777529373 | 10° C | 38% | 1030.9 hPa | - | - | - | - |
| 1777528473 | 10° C | 38% | 1030.7 hPa | - | - | - | - |
| 1777527573 | 8.89° C | 40% | 1030.6 hPa | - | - | - | - |
| 1777525773 | 7.22° C | 40% | 1030.3 hPa | - | - | - | - |
| 1777524873 | 6.67° C | 42% | 1030.2 hPa | - | - | - | - |
| 1777523971 | 6.11° C | 47% | 1030 hPa | - | - | - | - |
| 1777523071 | 4.44° C | 48% | 1030 hPa | - | - | - | - |
| 1777522171 | 3.33° C | 50% | 1029.9 hPa | - | - | - | - |
| 1777521271 | 1.67° C | 56% | 1029.7 hPa | - | - | - | - |
| 1777520371 | 1.11° C | 56% | 1029.8 hPa | - | - | - | - |
| 1777519473 | 1.67° C | 56% | 1029.9 hPa | - | - | - | - |
| 1777518570 | 1.67° C | 55% | 1029.9 hPa | - | - | - | - |
| 1777517670 | 1.67° C | 54% | 1029.7 hPa | - | - | - | - |
| 1777516777 | 1.67° C | 54% | 1029.7 hPa | - | - | - | - |
| 1777516770 | 1.67° C | 54% | 1029.7 hPa | - | - | - | - |
| 1777515872 | 2.22° C | 55% | 1029.6 hPa | - | - | - | - |
| 1777514972 | 2.22° C | 56% | 1029.4 hPa | - | - | - | - |
| 1777514107 | 2.22° C | 56% | 1029.4 hPa | - | - | - | - |
| 1777514070 | 2.22° C | 56% | 1029.4 hPa | - | - | - | - |
* Rain since midnight (hover to see other rain measurements)
** Current wind speed in m/s (hover to see current wind gust speed)